Regional Weather Roundup
Issued by NWS

Home | Current Version | Previous Version | Text Only | Print | Product List | Glossary Off
Versions: 1 2 3 4 5 6 7 8 9 10 11 12 13 14 15 16 17 18 19 20 21 22 23 24 25 26 27

000
ASUS45 KTFX 181810
RWRMT
MONTANA REGIONAL WEATHER ROUNDUP
NATIONAL WEATHER SERVICE GREAT FALLS MT
1100 AM MST WED JAN 18 2017

NOTE: "FAIR" INDICATES FEW OR NO CLOUDS BELOW 12000 FEET WITH NO
SIGNIFICANT WEATHER AND/OR OBSTRUCTIONS TO VISIBILITY.

MTZ001>007-043-181900-
WEST OF THE DIVIDE

CITY           SKY/WX    TMP DP  RH WIND       PRES   REMARKS
KALISPELL      CLOUDY    26  22  84 CALM      29.72S FOG
MISSOULA       CLOUDY    23  19  85 W3        29.78F FOG
BUTTE          CLOUDY    30  19  63 CALM      29.79R
MULLAN PASS    SNOW      30  29  96 S8        29.67R VSB 1/4 WCI  22
ANACONDA         N/A     45  21  39 S16G29    29.74R
DEER LODGE       N/A     39  21  48 SW7       29.74F
EUREKA           N/A     30  28  93 CALM      29.67S
HAMILTON         N/A     45  25  45 S13       29.75S
PLAINS           N/A     26  18  72 CALM      29.76R
RONAN            N/A     23  19  85 N1        29.76S
THOMPSON FALLS   N/A     28  24  85 E3        29.79R
$$

MTZ008-052>055-181900-
SOUTHWEST MONTANA

CITY           SKY/WX    TMP DP  RH WIND       PRES   REMARKS
BOZEMAN        CLOUDY    18  12  77 E9        29.80R WCI   7
DILLON         CLOUDY    34  16  47 SW18      29.83R WCI  23
W YELLOWSTONE  CLOUDY     7   3  85 CALM      30.03F
ENNIS          CLOUDY    32  18  55 S23G32    29.91S WCI  19
TWIN BRIDGES     N/A     31  15  51 SE10      29.86R WCI  22
$$

MTZ009-010-012-014-046-048-049-054-181900-
EAST SLOPES AND CENTRAL MONTANA

CITY           SKY/WX    TMP DP  RH WIND       PRES   REMARKS
CUT BANK         N/A     48  33  56 SW25      29.49F
GREAT FALLS    CLOUDY    44  25  47 S17       29.59R
MALMSTROM AFB  CLOUDY    43  29  57 SW24G33   29.58S
HELENA         CLOUDY    17  11  77 CALM      29.74R HAZE
AUGUSTA          N/A     41  32  69 SW18      29.57R
BOWMANS CRNR     N/A     36  24  62 S30       29.57S WCI  23
CHOTEAU          N/A     46  32  57 SW16G24   29.56S
CONRAD           N/A     41  35  79 S3        29.60R
POWER            N/A     38  28  66 S10       29.57R WCI  31
RAYNESFORD     PTSUNNY   54  22  28 S8        29.60S
ULM              N/A     44  26  48 MISG      29.62R
$$

MTZ011-013-016-021-045-047-050-051-181900-
NORTH CENTRAL MONTANA

CITY           SKY/WX    TMP DP  RH WIND       PRES   REMARKS
HAVRE          CLOUDY    42  30  62 SW18      29.51F
LEWISTOWN      CLOUDY    46  24  42 SW22      29.61R
N BAR RANCH      N/A     59  19  21 SW7G15    29.61S
CHINOOK          N/A     43  30  61 W9        29.50F
DENTON         PTSUNNY   42  28  57 SE10      29.55S
FORT BENTON      N/A     48  25  40 MISG      29.57R
GEYSER           N/A     50  24  36 W13G25    29.57F
GRASS RANGE    PTSUNNY   56  21  25 NW12      29.55F
JUDITH GAP     PTSUNNY   44  22  40 SW28G36   29.66F
ROY              N/A     55  29  37 MISG      29.55F
STANFORD         N/A     47  25  42 SW5       29.59F
WINIFRED         N/A     48  26  42 SW24G30   29.57S
$$

MTZ017>020-022>027-061-062-181900-
NORTHEAST MONTANA

CITY           SKY/WX    TMP DP  RH WIND       PRES   REMARKS
GLASGOW        CLOUDY    35  27  72 SE12      29.55S WCI  27
JORDAN           N/A     45  26  47 VRB5      29.57F
SIDNEY         CLOUDY    32  23  69 S18       29.62F WCI  20
WOLF POINT     CLOUDY    32  22  66 NE5       29.58F
PLENTYWOOD       N/A     34  25  69 SE7       29.57F WCI  28
POPLAR           N/A     39  25  56 S5        29.59F
SCOBEY           N/A     33  21  61 SE6       29.56F WCI  27
$$

MTZ028>42-056>058-181900-
SOUTHCENTRAL AND SOUTHEAST MONTANA

CITY           SKY/WX    TMP DP  RH WIND       PRES   REMARKS
BAKER          CLOUDY    32  22  66 E7        29.70F WCI  26
BILLINGS       CLOUDY    41  20  43 SW16      29.68F
LIVINGSTON     CLOUDY    46  12  25 SW36G52   29.72F
MILES CITY     CLOUDY    27  17  66 S14       29.68F WCI  16
BIG TIMBER     SUNNY     46  14  27 W25G31    29.72F
EKALAKA          N/A     49  18  29 SE5       29.70
FORSYTH          N/A     30  18  59 N7        29.67F WCI  23
HARLOWTON      PTSUNNY   44  21  39 CALM      29.68F
LAUREL           N/A     40  19  43 S22       29.68F
$$

REGIONAL REPORTS...DAKOTAS

CITY           SKY/WX    TMP DP  RH WIND       PRES   REMARKS
WILLISTON      CLOUDY    37  24  59 SW6       29.62F
MINOT          CLOUDY    41  28  60 SW17      29.62F
DICKINSON      CLOUDY    38  26  62 SW10      29.66F WCI  31
BEACH            N/A     37  25  60 S16       29.69F WCI  28
CROSBY           N/A     32  27  80 S28       29.57F WCI  18
TIOGA            N/A     36  27  69 SW12      29.62F WCI  27
WATFORD CITY     N/A     34  25  69 SW8       29.63F WCI  27
BISMARCK       CLOUDY    27  20  75 E3        29.73F
GRAND FORKS    CLOUDY    28  21  75 S9        29.70F WCI  19
FARGO          SUNNY     30  23  75 S7        29.75F WCI  23
BUFFALO SD       N/A     30  20  66 W6        29.66F WCI  24
RAPID CITY     CLOUDY    29  21  72 S3        29.73F
$$

REGIONAL REPORTS...WYOMING/IDAHO/WASHINGTON

CITY           SKY/WX    TMP DP  RH WIND       PRES   REMARKS
GILLETTE       CLOUDY    44  21  40 SW25G36   29.73F
SHERIDAN       CLOUDY    26  16  65 VRB6      29.73R WCI  19
BUFFALO WY     CLOUDY    46  19  34 SE8       29.74F
CODY           CLOUDY    26  14  60 VRB3      29.81F
YELLOWSTONE LA   N/A      4   0  83 CALM      30.00F
IDAHO FALLS    CLOUDY     9   4  80 N9        30.09S WCI  -4
SALMON         CLOUDY     3   0  85 CALM      30.02F
BOISE          CLOUDY    20  16  84 NW7       30.03R FOG     WCI  11
SPOKANE        LGT RAIN  37  33  85 SE15G23   29.63S WCI  28
$$

REGIONAL REPORTS...ALBERTA

CITY           SKY/WX    TMP DP  RH WIND       PRES   REMARKS
EDMONTON       PTSUNNY   43  27  52 SW6       29.18S
CALGARY        PTSUNNY   37  28  70 S10       29.29R WCI  30
LETHBRIDGE     PTSUNNY   39  32  75 SW8       29.43F
MEDICINE HAT   PTSUNNY   43  34  70 SW22G29   29.37F
WATERTON GATE    N/A     45  30  57 SW37G58     N/A
CARDSTON         N/A     48  30  49 SW12G17     N/A
MILK RIVER       N/A     43  34  70 SW21G30     N/A
$$

REGIONAL REPORTS...SASKATCHEWAN

CITY           SKY/WX    TMP DP  RH WIND       PRES   REMARKS
SWIFT CURRENT  SUNNY     43  32  65 SW24G33   29.37S
REGINA         PTSUNNY   34  28  80 SE10      29.47F WCI  26
SASKATOON      CLOUDY    39  30  70 S16       29.32F WCI  30
CYPRESS HILLS    N/A     37  27  65 SW18G28     N/A  WCI  27
ROCKGLEN         N/A     36  28  75 S10         N/A  WCI  28
$$




USA.gov is the U.S. government's official web portal to all federal, state and local government web resources and services.